Regional Weather Roundup
Issued by NWS Kansas City/Pleasant Hill, MO

Home | Current Version | Previous Version | Text Only | Print | Product List | Glossary On
Versions: 1 2 3 4 5 6 7 8 9 10 11 12 13 14 15 16 17 18 19 20 21 22 23 24 25 26 27 28 29 30 31 32 33 34 35 36 37 38 39 40 41 42 43 44 45 46 47 48 49 50
000
ASUS43 KEAX 221211
RWREAX

WEATHER ROUNDUP FOR EASTERN KANSAS AND NORTHWEST MISSOURI
NATIONAL WEATHER SERVICE KANSAS CITY/PLEASANT HILL MO
600 AM CST MON DEC 22 2014

KSZ040-057-103>105-MOZ028-029-037-043-221300-
...KANSAS CITY METROPOLITAN AREA...

CITY           SKY/WX    TMP DP  RH WIND       PRES   REMARKS
K.C. INTL      DRIZZLE   41  40  96 SE15      29.61F FOG     WCI  33
6HR MIN TEMP:  41; 6HR MAX TEMP:  42; 6HR PCP:  0.03;

K.C. DOWNTOWN  CLOUDY    43  40  89 SE6       29.62F
6HR MIN TEMP:  43; 6HR MAX TEMP:  45; 6HR PCP: TRACE;

LEES SUMMIT    CLOUDY    41  40  96 S9        29.63F
6HR MIN TEMP:  41; 6HR MAX TEMP:  42; 6HR PCP:  0.01;

OLATHE - IXD   CLOUDY    41  40  96 SE9       29.61F FOG
6HR MIN TEMP:  41; 6HR MAX TEMP:  42; 6HR PCP:  0.01;

OLATHE - OJC   CLOUDY    41  41 100 SE9       29.61S FOG
6HR MIN TEMP:  41; 6HR MAX TEMP:  43; 6HR PCP:  0.01;

LAWRENCE       LGT RAIN  42  40  92 SE9       29.60F FOG

$$

MOZ001>008-011>017-020>025-030>033-038>040-044>046-053-054-221300-
...NORTHERN AND CENTRAL MISSOURI...

CITY           SKY/WX    TMP DP  RH WIND       PRES   REMARKS
ST. JOSEPH     LGT RAIN  42  39  89 SE12      29.61F
6HR MIN TEMP:  42; 6HR MAX TEMP:  44; 6HR PCP:  0.01;

MOSBY          CLOUDY    41  37  87 SE5       29.63F
WARRENSBURG    CLOUDY    41  37  87 SE9       29.65S
WHITEMAN AFB   CLOUDY    41  38  91 SE7       29.66S
6HR MIN TEMP:  41; 6HR MAX TEMP:  43; 6HR PCP: TRACE;

CLINTON        DRIZZLE   43  39  87 SE8       29.66F
SEDALIA        CLOUDY    41  37  86 SE10      29.67F WCI  35
6HR MIN TEMP:  41; 6HR MAX TEMP:  44;

WARSAW         NOT AVBL
MARSHALL       CLOUDY    43  39  87 SE8       29.69F
CHILLICOTHE      N/A     41  36  82 SE7       29.67F
6HR MIN TEMP:  41; 6HR MAX TEMP:  42;

KIRKSVILLE     CLOUDY    40  36  86 SE12      29.71F WCI  33
6HR MIN TEMP:  39; 6HR MAX TEMP:  40;


$$

MOZ041-047>049-056>058-063>065-088>090-097-221300-
...EASTERN AND SOUTHERN MISSOURI...

CITY           SKY/WX    TMP DP  RH WIND       PRES   REMARKS
ST. LOUIS INTL LGT RAIN  40  35  83 E10       29.80F WCI  33
6HR MIN TEMP:  40; 6HR MAX TEMP:  43; 6HR PCP:  0.05;

SPIRIT OF STL  LGT RAIN  39  35  86 E6        29.77F FOG     WCI  35
COLUMBIA       LGT RAIN  39  37  92 SE8       29.70F WCI  33
JEFFERSON CITY CLOUDY    41  38  89 E8        29.71F FOG
HANNIBAL       CLOUDY    41  30  65 E7        29.74F
ROLLA          LGT RAIN  40  38  93 SE7       29.69F
LEBANON        CLOUDY    41  39  93 SE7       29.67F FOG
OSAGE BEACH    CLOUDY    45  36  70 S7        29.68F
SPRINGFIELD    CLOUDY    42  39  89 SE13      29.64F
NEVADA         CLOUDY    41  39  93 SE7       29.64F
JOPLIN         CLOUDY    45  43  93 SE9       29.63S FOG
WEST PLAINS    CLOUDY    43  41  93 SE10      29.71F FOG

$$

IAZ060-094-KSZ022-034>040-054-083-096-NEZ052-066-093-221300-
...KANSAS...SOUTHEAST NEBRASKA AND IOWA...

CITY           SKY/WX    TMP DP  RH WIND       PRES   REMARKS
TOPEKA         LGT RAIN  45  43  93 SE7       29.59F
6HR MIN TEMP:  44; 6HR MAX TEMP:  46; 6HR PCP:  0.03;

MANHATTAN      CLOUDY    44  43  96 S5        29.55F
EMPORIA        CLOUDY    42  42 100 S9        29.57S FOG
CHANUTE        CLOUDY    44  43  96 SE9       29.61S FOG
WICHITA        DRIZZLE   45  43  93 S9        29.55S FOG
OMAHA          LGT RAIN  43  41  93 S15       29.56F
LINCOLN        LGT RAIN  43  42  97 S10       29.53S
FALLS CITY     LGT RAIN  42  40  92 SE10      29.57F FOG
LAMONI         CLOUDY    39  37  92 SE10      29.64F WCI  32
DES MOINES     LGT RAIN  41  37  86 SE13      29.66F WCI  34

$$




USA.gov is the U.S. government's official web portal to all federal, state and local government web resources and services.